Other Public Products
Issued by NWS Grand Forks, ND

Home | Current Version | Previous Version | Graphics & Text | Print | Product List | Glossary On
Versions: 1 2 3 4 5 6 7 8 9 10 11 12 13 14 15 16 17 18 19 20 21 22 23 24 25 26 27 28 29 30 31 32 33 34 35 36 37 38 39 40 41 42 43 44 45 46 47 48 49 50
000
FPUS83 KFGF 240810
OPUFGF
PRAIRIE TO PINES WEATHER ROUNDUP
NATIONAL WEATHER SERVICE EASTERN NORTH DAKOTA/GRAND FORKS ND
300 AM CDT WED MAY 24 2017

 **SATELLITE DATA USED TO AUGMENT SKY COVER AT AUTOMATED STATIONS**
 *****  WEATHER ACROSS EASTERN NORTH DAKOTA  *****

CITY           SKY/WX    TMP DP  RH WIND       PRES   REMARKS
GRAND FORKS    FAIR      41  39  93 CALM      29.88F
GRAND FORKS AF FAIR      42  40  94 CALM      29.89F
GRAND CITY NWS NOT AVBL
BUXTON         NOT AVBL
DEVILS LAKE    FAIR      46  41  82 SW3       29.89F
FARGO          FAIR      41  40  96 N6        29.89S
WAHPETON ARPT  CLOUDY    43  41  93 N5        29.87S
$$

 *****  WEATHER ACROSS CENTRAL AND WESTERN NORTH DAKOTA  *****

CITY           SKY/WX    TMP DP  RH WIND       PRES   REMARKS
JAMESTOWN      FAIR      39  37  92 CALM      29.89F
BISMARCK       FAIR      42  38  85 CALM      29.90F
MINOT          FAIR      55  38  52 S15       29.83F
MINOT AFB      FAIR      53  38  57 S15       29.82F
GARRISON         N/A     46  37  71 S9        29.86F
WILLISTON      FAIR      56  36  47 S13       29.77F
DICKINSON      FAIR      44  34  67 S14       29.83F
HETTINGER      FAIR      42  34  73 SE8       29.88F
$$

 *****  OTHER OBSERVATIONS NORTHEAST NORTH DAKOTA  *****

CITY           SKY/WX    TMP DP  RH WIND       PRES   REMARKS
WALHALLA       NOT AVBL
LANGDON        FAIR      41  41 100 S8        29.88F
CAVALIER       FAIR      48  41  76 SW6       29.87F
GRAFTON        FAIR      41  41 100 SW3       29.91S
CANDO          NOT AVBL
FORT TOTTEN      N/A     45  40  81 SE3       29.95S
ROLLA          FAIR      46  36  66 SW7       29.87F
RUGBY          NOT AVBL
 ***** THE ABOVE OBSERVATIONS ARE NON NWS ARE NOT QUALITY
        CONTROLLED AND MAY MIS-REPORT RAIN FOR SNOW...
$$

 *****  OTHER OBSERVATIONS SOUTHEAST NORTH DAKOTA *****

CITY           SKY/WX    TMP DP  RH WIND       PRES   REMARKS
COOPERSTOWN    FAIR      37  37 100 CALM      29.90F
VALLEY CITY    FAIR      41  41 100 N5        29.91F
OAKES          NOT AVBL
GWINNER        SUNNY     43  41  93 MISG      29.88F
SHEYENNE NWR     N/A     43  42  97 N3        29.95S
BUFFALO        NOT AVBL
WYNDMERE         N/A     39  39 100 NW3         N/A
 ***** THE ABOVE OBSERVATIONS ARE NON NWS ARE NOT QUALITY
       CONTROLLED AND MAY MIS-REPORT RAIN FOR SNOW...
$$

  *****  WEATHER ACROSS NORTHERN MINNESOTA  *****

CITY           SKY/WX    TMP DP  RH WIND       PRES   REMARKS
FLAG ISLAND    FAIR      52  41  66 SW5       29.88F
WARROAD        FAIR      43  37  81 CALM      29.90F
ROSEAU         FAIR      39  36  87 CALM      29.90F
HALLOCK        FAIR      43  39  87 S6        29.88F
THF RVR FALLS  FAIR      44  42  93 N5        29.90F
HALSTAD          N/A     38  37  98 N6          N/A
FOSSTON        FAIR      36  36 100 CALM      29.90S
BAUDETTE       FOG       35  35 100 CALM      29.89F VSB 1/4
WASKISH        FAIR      36  36 100 CALM      29.89F
CROOKSTON      FAIR      45  43  93 CALM      29.90F
$$
  *****  WEATHER ACROSS CENTRAL AND WEST MINNESOTA  *****

CITY           SKY/WX    TMP DP  RH WIND       PRES   REMARKS
BEMIDJI          N/A     34  33  96 CALM      29.88S FOG
PARK RAPIDS    CLOUDY    47  40  76 N5        29.86F
WADENA         CLOUDY    48  45  87 N3        29.86S
DETROIT LAKES  FAIR      45  43  93 N3        29.89S
MOORHEAD       FAIR      39  39 100 CALM      29.89F
FERGUS FALLS   FAIR      43  43 100 CALM      29.86F
ELBOW LAKE     FAIR      43  43  99 N5        29.86S
MORRIS MN      FAIR      43  41  93 NW3       29.85S
STAPLES        CLOUDY    48  43  81 CALM      29.86S
WHEATON        FAIR      41  39  93 W3        29.89S FOG
$$
  *****  WEATHER ELSEWHERE ACROSS MINNESOTA  *****

CITY           SKY/WX    TMP DP  RH WIND       PRES   REMARKS
DULUTH         CLOUDY    47  46  97 N7        29.84S
INTRNTL FALLS  FAIR      33  30  88 CALM      29.88F
ELY            MOCLDY    37  37 100 CALM      29.87S
CLOQUET        CLOUDY    46  45  93 N3        29.85S
BRAINERD       CLOUDY    48  47  96 NE5       29.85F
HIBBING        FAIR      37  37 100 CALM      29.86F
ALEXANDRIA     CLOUDY    49  45  86 NE9       29.86S
SAINT CLOUD    MOCLDY    48  45  89 N6        29.82F
MINNEAPOLIS    FAIR      48  42  80 N7        29.80S
$$

  *****  WEATHER ACROSS SOUTH DAKOTA  *****

CITY           SKY/WX    TMP DP  RH WIND       PRES   REMARKS
SIOUX FALLS    FAIR      45  44  97 N7        29.83F
BROOKINGS      FAIR      43  42  97 N3        29.84F
WATERTOWN      FAIR      37  36  96 N5        29.85F
HURON          FAIR      37  37 100 NW5       29.88F
SISSETON         N/A     43  42  97 NW9       29.87R
ABERDEEN       FAIR      40  36  86 N5        29.89F
MITCHELL       FAIR      43  41  93 NW9       29.88F
PIERRE         FAIR      37  34  89 W6        29.90F
MOBRIDGE       FAIR      39  35  86 NE5       29.87F
RAPID CITY     FAIR      39  33  79 SE6       29.91F
$$

  *****  SOME WEATHER IN NEARBY STATES *****

CITY           SKY/WX    TMP DP  RH WIND       PRES   REMARKS
GLASGOW MT     FAIR      58  35  42 SE17      29.60F
GREAT FALLS MT FAIR      64  36  35 SW15      29.57F
CHEYENNE WY    FAIR      35  31  85 W7        30.00F
SCOTTSBLUFF NE FAIR      42  37  82 E3        29.96F
OMAHA NE       MOCLDY    50  45  83 N9        29.78F
DES MOINES IA  LGT RAIN  52  50  93 N8        29.69F
DAVENPORT IA   FAIR      49  47  93 W5        29.64F
CHICAGO IL     LGT RAIN  54  52  93 NE7       29.62F
EAU CLAIRE WI  CLOUDY    48  44  86 N7        29.75S
LA CROSSE WI   CLOUDY    53  48  83 N3        29.72S
$$

  *****  SOME NATIONAL WEATHER *****

CITY           SKY/WX    TMP DP  RH WIND       PRES   REMARKS
LA GUARDIA NY  MOCLDY    61  49  64 SE7       29.74F
RALEIGH NC     MOCLDY    65  64  97 CALM      29.66F
ATLANTA GA     CLOUDY    66  64  93 S7        29.65F
NEW ORLEANS LA MOCLDY    72  67  84 W8        29.72F
OKLAHOMA CITY  FAIR      51  45  79 NW8       29.87F
ALBUQUERQUE NM FAIR      58  29  33 N6        30.07F
SALT LAKE CITY FAIR      65  37  35 SE8       29.94F
LOS ANGELES CA FAIR      59  57  93 SW6       29.91S
BOISE ID       FAIR      67  43  41 E12       29.77F
SEATTLE WA     CLOUDY    53  35  50 NE14      30.06S
$$

*** WEATHER ACROSS MANITOBA...SASKATCHEWAN AND ONTARIO ***
                ***ONTARIO***

CITY           SKY/WX    TMP DP  RH WIND       PRES   REMARKS
GERALDTON      CLEAR     34  32  93 NE2       29.90S
THUNDER BAY    PTCLDY    41  41 100 SW5       29.87S
SIOUX LOOKOUT  CLEAR     32  32 100 CALM      29.88F
TORONTO        MOCLDY    57  50  77 NE6       29.71F
BIG TROUT LK   CLEAR     37  28  70 S3        29.90F
PICKLE LAKE    NOT AVBL
DRYDEN         CLEAR     45  37  76 W2        29.89S
KENORA         CLEAR     48  41  76 SW5       29.88F
$$
                *** MANITOBA***

CITY           SKY/WX    TMP DP  RH WIND       PRES   REMARKS
BRANDON        PTCLDY    54  36  50 SW12      29.81F
DAUPHIN        CLEAR     59  32  36 S16G26    29.73F
ISLAND LAKE    MOCLDY    48  34  57 SE9       29.78F
PILOT MOUND    NOT AVBL
THE PAS        PTCLDY    59  37  44 SE14      29.57F
THOMPSON       CLOUDY    55  36  47 S7        29.61F
WINNIPEG       MOCLDY    50  39  66 S8        29.85F
LYNN LAKE      MOCLDY    55  41  58 S7        29.45F
CHURCHILL      CLOUDY    43  36  75 S10       29.59F
GILLAM         CLOUDY    54  34  47 S9        29.69F
$$
                ***SASKATCHEWAN***

CITY           SKY/WX    TMP DP  RH WIND       PRES   REMARKS
ESTEVAN        PTCLDY    50  37  62 S13       29.75F
KINDERSLEY     MOCLDY    63  41  45 S18       29.31F
LLOYDMINSTER   CLEAR     61  45  55 S15G22    29.18F
PRINCE ALBERT  PTCLDY    63  37  39 S12G20    29.42F
REGINA         CLEAR     55  34  44 SE23G29   29.62F
YORKTON          N/A     54  36  50 S8        29.68F


USA.gov is the U.S. government's official web portal to all federal, state and local government web resources and services.